Regional Weather Roundup
Issued by NWS Newport/Morehead, NC

Current Version | Previous Version | Graphics & Text | Print | Product List | Glossary Off
Versions: 1 2 3 4 5 6 7 8 9 10 11 12 13 14 15 16 17 18 19 20 21 22 23 24 25 26 27 28 29 30 31 32 33 34 35 36 37 38 39 40 41 42 43 44 45 46 47 48 49 50
000 ASUS42 KMHX 220125 RWRMHX WEATHER ROUNDUP FOR EASTERN NORTH CAROLINA NATIONAL WEATHER SERVICE NEWPORT/MOREHEAD CITY NC 900 PM EDT FRI JUL 21 2017 NOTE: "FAIR" INDICATES FEW OR NO CLOUDS BELOW 12,000 FEET WITH NO SIGNIFICANT WEATHER AND/OR OBSTRUCTIONS TO VISIBILITY NCZ015>017-031-032-045>047-102-103-220200- NORTH COAST CITY SKY/WX TMP DP RH WIND PRES REMARKS EDENTON PTCLDY 83 74 72 SW13G20 29.96R ELIZABETH CITY PTCLDY 85 81 88 S7 29.93S HX 100 KITTY HAWK CLOUDY 84 76 77 S9 29.95R MANTEO MOCLDY 84 76 75 SW16 29.96R $$ NCZ045>047-081-094-103-104-220200- CENTRAL COAST CITY SKY/WX TMP DP RH WIND PRES REMARKS FRISCO CLEAR 81 75 82 SW10 29.99R $$ NCZ095-097-098-100-101-220200- SOUTHERN COAST CITY SKY/WX TMP DP RH WIND PRES REMARKS BEAUFORT CLEAR 82 79 90 SW15 29.99F CEDAR ISLAND NOT AVBL JACKSONVILLE CLEAR 81 76 84 S6 29.98S PINEY ISLAND CLEAR N/A N/A N/A S9 29.99R WILMINGTON CLEAR 82 74 76 SW9 30.00S $$ NCZ011>013-027>030-043-044-078>080-089-090>093-098-220200- COASTAL PLAIN CITY SKY/WX TMP DP RH WIND PRES REMARKS AHOSKIE N/A 80 75 85 S3 29.94R CLINTON CLEAR 79 75 86 CALM 29.99R ELIZABETHTOWN NOT AVBL GOLDSBORO NOT AVBL GREENVILLE CLOUDY 82 73 74 W5 29.98S HAVELOCK CLEAR 81 73 76 S8 29.99S KENANSVILLE CLOUDY 84 75 74 CALM 29.98R KINSTON PTCLDY 82 72 69 S7 29.98S NEW BERN CLEAR 81 74 79 S9 29.98S RICHLANDS CLEAR 83 74 74 S8 29.99R ROCKY MOUNT CLOUDY 80 72 76 S5 29.95S WASHINGTON CLOUDY 81 74 79 SE5 29.97S WHITEVILLE CLEAR 82 72 69 S6 30.00R $$ AMZ130-135-150-152-154-156-158-170-250-252-270-ANZ085-086-088-633-658-670-220200- MARINE OBSERVATIONS STATION/POSITION TIME TEMP WIND PRES WAVE SWELL AIR SEA DIR/SP/G HT/PER HT/PER (UTC) (F) (DEG/KT/KT) (MB) (FT/S) (FT/S) CHESAPEAKE LIGHT NOT AVBL 64 E VA BEACH 0050 81 80 210/ 16/ 17 1014.1 3/ 5 2/ 9 DUCK 0100 85 63 200/ 13/ 18 1013.4 2 E DUCK 0100 71 N/A 2/14 2/14 OREGON INLET 0100 82 86 200/ 16/ 19 1014.5 13E OREGON INLT 0048 81 N/A 3/10 2/10 HATTERAS CG 0100 79 81 220/ 8/ 12 1015.4 DIAMOND BUOY 0050 83 84 230/ 17/ 21 1015.4 4/ 4 2/10 CAPE LOOKOUT 0100 81 220/ 10/ 14 1015.5 BEAUFORT LAB 0100 81 80 220/ 8/ 14 1015.0 30 SE NEW RVR IN 0108 81 82 230/ 16/ 19 1016.2 30 SE NEW RVR IN 0043 82 N/A 3/10 2/11 27 SE WRIGHTSVLE 0108 82 81 200/ 16/ 19 1016.1 5 SE WRIGHTSVLE 0108 81 81 210/ 8/ 14 1015.9 225 S CAPE HAT 0050 83 84 200/ 8/ 10 1018.4 4/ 8 3/ 8 41 SE CHARLESTON 0100 83 84 200/ 12/ 16 1016.5 $$

USA.gov is the U.S. government's official web portal to all federal, state and local government web resources and services.